Погода в Ульяновске

Россия / Ульяновская область     54°19′00″N   48°24′09″E
темп.,
°C
ветер,
м/с
пор.,
м/с
влажн.,
%
обл.,
%
осадки,
мм/ч
давл.,
гПа
погр.,
м
19 сентября, вс
вс1901:00+7ссз45615 0.0 1024588
04:00+6сз4566100 0.0 1024372
07:00+5ссз4672100 0.0 1025449
10:00+6ссз446097 0.0 1026727
13:00+8с335180 0.0 1026804
16:00+9ссв224693 0.0 1025591
19:00+9в1147100 0.0 1025229
22:00+9в2247100 0.0 1025271
20 сентября, пн
пн2001:00+8вюв235387 0.0 1025221
04:00+7в446066 0.0 1025247
07:00+6в5667100 0.0 1025317
10:00+7в5661100 0.0 1026515
13:00+10в5649100 0.0 1025921
16:00+11в5644100 0.0 10241075
19:00+11в5749100 0.0 1024985
22:00+9в6956100 0.0 1024382
21 сентября, вт
вт2101:00+9вюв6955100 0.0 1024643
04:00+8всв6866100 0.5 1023322
07:00+8в71065100 0.4 1022529
10:00+8в71267100 1.4 1021602
13:00+9вюв81262100 0.4 1020699
16:00+9вюв81171100 1.4 1018684
19:00+9в71176100 0.9 1017496
22:00+9в71171100 0.9 1015515
22 сентября, ср
ср2201:00+10в6964100 0.0 1014447
04:00+10в61072100 0.0 1012366
07:00+10вюв4790100 0.8 1012409
10:00+12юв5794100 1.9 1012496
13:00+12юв4693100 2.1 1012395
16:00+14юв5579100 2.4 1011492
19:00+12юв4686100 0.1 1011219
22:00+12ююв458576 0.2 1011204
23 сентября, чт
чт2301:00+11ююв358695 0.1 1011183
04:00+12ююв458384 0.1 1011227
07:00+11ююв478584 0.0 1012296
10:00+12ююз358190 0.0 1012411
13:00+15ююз356163 0.0 1012793
16:00+15ю4553100 0.0 1011680
19:00+14ю3458100 0.0 101165
22:00+13ююз3458100 0.0 1011130